Regional Weather Roundup
Issued by NWS

Home | Current Version | Previous Version | Text Only | Print | Product List | Glossary Off
Versions: 1 2 3 4 5 6 7 8 9 10 11 12 13 14 15 16 17 18 19 20 21 22 23 24 25 26 27 28 29 30 31 32 33 34 35 36 37 38 39 40 41 42 43 44 45 46 47 48 49 50

000
ASUS43 KLSX 220507
RWRMO

WEATHER SUMMARY FOR MISSOURI
NATIONAL WEATHER SERVICE SPRINGFIELD MO
1200 AM CDT WED OCT 22 2014

NOTE: "FAIR" INDICATES FEW OR NO CLOUDS BELOW 12,000 FEET WITH NO
       SIGNIFICANT WEATHER AND/OR OBSTRUCTIONS TO VISIBILITY.
       CURRENT SKY AND/OR WEATHER CONDITIONS ARE NOT AVAILABLE FOR
       CHILLICOTHE AND FARMINGTON.

MOZ001>031-035>038-043-044-053-054-220600-
...NORTHERN AND WESTERN MISSOURI...

CITY           SKY/WX    TMP DP  RH WIND       PRES   REMARKS
KANSAS CTY INT CLEAR     57  45  64 SE14      30.12R
KANSAS C DTWN  CLEAR     58  45  62 E8        30.12R
LEE`S SUMMIT   CLEAR     55  44  66 E9        30.13S
ST JOSEPH      CLEAR     56  45  66 SE9       30.12R
CHILLICOTHE      N/A     53  43  68 SE5       30.18R
KIRKSVILLE     CLEAR     47  41  80 E8        30.20R

$$
MOZ066>068-077>081-088>096-101>105-220600-
...SOUTHWEST MISSOURI...

CITY           SKY/WX    TMP DP  RH WIND       PRES   REMARKS
SPRINGFIELD    CLEAR     53  44  71 E6        30.13S
JOPLIN         CLEAR     57  47  69 E7        30.11F

$$
MOZ032>034-039>042-045>050-055>058-069>072-220600-
...CENTRAL MISSOURI...

CITY           SKY/WX    TMP DP  RH WIND       PRES   REMARKS
COLUMBIA       CLEAR     51  42  71 E7        30.18R
JEFFERSON CITY CLEAR     50  43  77 SE6       30.18R
ROLLA          CLEAR     51  43  74 E9        30.16R
SEDALIA        CLEAR     53  45  74 E6        30.17R
WHITEMAN AFB   CLEAR     51  45  78 SE7       30.14S
OSAGE BEACH    CLEAR     54  43  66 E3        30.16S

$$
MOZ051-052-059>065-220600-
...EAST CENTRAL MISSOURI...

CITY           SKY/WX    TMP DP  RH WIND       PRES   REMARKS
ST LOUIS INTL  CLEAR     51  40  65 E9        30.21R
SPIRIT OF STL  CLEAR     44  42  93 CALM      30.20R
ST CHARLES     CLEAR     49  40  71 E9        30.21R

$$
MOZ072>076-082>087-097>100-106>115-220600-
...SOUTH CENTRAL AND SOUTHEAST MISSOURI...

CITY           SKY/WX    TMP DP  RH WIND       PRES   REMARKS
CAPE GIRARDEAU CLEAR     51  44  77 NE7       30.17F
FARMINGTON     CLEAR     48  43  81 CALM      30.20S
POPLAR BLUFF   CLEAR     51  43  74 N5        30.15S
WEST PLAINS    CLEAR     52  44  74 E3        30.17S

$$



USA.gov is the U.S. government's official web portal to all federal, state and local government web resources and services.